• în România
  • Lista ţărilor
  • Pe 7 zile
  • Temperatura apei
  • Hartă satelitară
  • Meteo pe hartă
  • Widget-uri
  • user-avatar
    Intrare

    Meteo pe oră la Tirana

    Astăzi, 19 Septembrie, Marţi

    Timp Temperatura Precipitaţii Vânt Presiune Umiditate
    00:00 +20°C° 0 mm 1 m/s 752 mmHg 78%
    01:00 +20°C° 0 mm 1 m/s 752 mmHg 81%
    02:00 +20°C° 0 mm 1 m/s 752 mmHg 79%
    03:00 +20°C° 0 mm 1 m/s 751 mmHg 78%
    04:00 +19°C° 0 mm 1 m/s 751 mmHg 77%
    05:00 +20°C° 0 mm 1 m/s 751 mmHg 71%
    06:00 +20°C° 0 mm 2 m/s 751 mmHg 66%
    07:00 +23°C° 0 mm 2 m/s 751 mmHg 59%
    08:00 +25°C° 0 mm 2 m/s 751 mmHg 49%
    09:00 +26°C° 0 mm 2 m/s 751 mmHg 39%
    10:00 +28°C° 0 mm 3 m/s 751 mmHg 29%
    11:00 +29°C° 0 mm 3 m/s 750 mmHg 28%
    12:00 +29°C° 0 mm 4 m/s 750 mmHg 28%
    13:00 +30°C° 0 mm 5 m/s 750 mmHg 27%
    14:00 +29°C° 0 mm 5 m/s 750 mmHg 32%
    15:00 +29°C° 0 mm 5 m/s 750 mmHg 37%
    16:00 +28°C° 0 mm 5 m/s 750 mmHg 43%
    17:00 +26°C° 0,3 mm 5 m/s 750 mmHg 54%
    18:00 +23°C° 0,3 mm 4 m/s 750 mmHg 65%
    19:00 +21°C° 0,3 mm 4 m/s 750 mmHg 76%
    20:00 +20°C° 0,2 mm 4 m/s 750 mmHg 78%
    21:00 +20°C° 0,2 mm 4 m/s 750 mmHg 79%
    22:00 +20°C° 0,2 mm 5 m/s 750 mmHg 81%
    23:00 +19°C° 0,1 mm 5 m/s 750 mmHg 80%

    Mâine, 20 Septembrie, Miercuri

    Timp Temperatura Precipitaţii Vânt Presiune Umiditate
    00:00 +19°C° 0,1 mm 5 m/s 750 mmHg 79%
    01:00 +19°C° 0,1 mm 5 m/s 750 mmHg 78%
    02:00 +19°C° 0,1 mm 5 m/s 750 mmHg 81%
    03:00 +17°C° 0,1 mm 5 m/s 750 mmHg 84%
    04:00 +18°C° 0,1 mm 4 m/s 750 mmHg 86%
    05:00 +19°C° 0,1 mm 4 m/s 750 mmHg 83%
    06:00 +19°C° 0,1 mm 3 m/s 750 mmHg 79%
    07:00 +20°C° 0,1 mm 2 m/s 750 mmHg 75%
    08:00 +21°C° 0,1 mm 3 m/s 750 mmHg 67%
    09:00 +22°C° 0,1 mm 3 m/s 750 mmHg 59%
    10:00 +24°C° 0,1 mm 3 m/s 750 mmHg 51%
    11:00 +24°C° 0,4 mm 3 m/s 750 mmHg 49%
    12:00 +25°C° 0,4 mm 4 m/s 750 mmHg 48%
    13:00 +25°C° 0,4 mm 4 m/s 750 mmHg 46%
    14:00 +23°C° 0,4 mm 4 m/s 750 mmHg 50%
    15:00 +22°C° 0,4 mm 4 m/s 750 mmHg 53%
    16:00 +21°C° 0,4 mm 4 m/s 750 mmHg 57%
    17:00 +20°C° 0,7 mm 4 m/s 750 mmHg 65%
    18:00 +18°C° 0,7 mm 3 m/s 751 mmHg 73%
    19:00 +17°C° 0,7 mm 3 m/s 751 mmHg 80%
    20:00 +16°C° 0,8 mm 3 m/s 751 mmHg 82%
    21:00 +15°C° 0,8 mm 4 m/s 752 mmHg 84%
    22:00 +14°C° 0,8 mm 4 m/s 752 mmHg 86%
    23:00 +14°C° 0,5 mm 4 m/s 752 mmHg 87%

    Poimâine, 21 Septembrie, Joi

    Timp Temperatura Precipitaţii Vânt Presiune Umiditate
    00:00 +14°C° 0,5 mm 4 m/s 752 mmHg 88%
    01:00 +14°C° 0,5 mm 4 m/s 752 mmHg 89%
    02:00 +14°C° 0,5 mm 4 m/s 752 mmHg 89%
    03:00 +14°C° 0,5 mm 4 m/s 752 mmHg 89%
    04:00 +14°C° 0,5 mm 4 m/s 752 mmHg 89%
    05:00 +14°C° 0,5 mm 4 m/s 752 mmHg 87%
    06:00 +15°C° 0,5 mm 4 m/s 752 mmHg 84%
    07:00 +17°C° 0,5 mm 4 m/s 753 mmHg 82%
    08:00 +18°C° 0,3 mm 4 m/s 753 mmHg 76%
    09:00 +19°C° 0,3 mm 4 m/s 753 mmHg 70%
    10:00 +20°C° 0,3 mm 4 m/s 753 mmHg 64%
    11:00 +20°C° 0,1 mm 4 m/s 753 mmHg 61%
    12:00 +21°C° 0,1 mm 5 m/s 753 mmHg 58%
    13:00 +21°C° 0,1 mm 5 m/s 753 mmHg 54%
    14:00 +21°C° 0 mm 6 m/s 753 mmHg 56%
    15:00 +20°C° 0 mm 6 m/s 753 mmHg 57%
    16:00 +20°C° 0 mm 6 m/s 753 mmHg 58%
    17:00 +19°C° 0,1 mm 6 m/s 753 mmHg 65%
    18:00 +16°C° 0,1 mm 5 m/s 754 mmHg 71%
    19:00 +15°C° 0,1 mm 5 m/s 754 mmHg 78%
    20:00 +14°C° 0,1 mm 4 m/s 754 mmHg 79%
    21:00 +14°C° 0,1 mm 4 m/s 755 mmHg 81%
    22:00 +14°C° 0,1 mm 4 m/s 755 mmHg 82%
    23:00 +14°C° 0,1 mm 4 m/s 755 mmHg 83%

    22 Septembrie, Vineri

    Timp Temperatura Precipitaţii Vânt Presiune Umiditate
    00:00 +13°C° 0,1 mm 4 m/s 755 mmHg 84%
    01:00 +13°C° 0,1 mm 4 m/s 755 mmHg 85%
    02:00 +13°C° 0 mm 3 m/s 755 mmHg 85%
    03:00 +13°C° 0 mm 3 m/s 755 mmHg 84%
    04:00 +13°C° 0 mm 3 m/s 755 mmHg 84%
    05:00 +13°C° 0 mm 3 m/s 755 mmHg 79%
    06:00 +14°C° 0 mm 3 m/s 755 mmHg 74%
    07:00 +16°C° 0 mm 3 m/s 755 mmHg 69%
    08:00 +18°C° 0 mm 3 m/s 755 mmHg 62%
    09:00 +20°C° 0 mm 2 m/s 755 mmHg 54%
    10:00 +21°C° 0 mm 2 m/s 755 mmHg 47%
    11:00 +22°C° 0 mm 3 m/s 755 mmHg 45%
    12:00 +22°C° 0 mm 4 m/s 755 mmHg 43%
    13:00 +23°C° 0 mm 4 m/s 755 mmHg 41%
    14:00 +22°C° 0 mm 4 m/s 755 mmHg 44%
    15:00 +22°C° 0 mm 4 m/s 755 mmHg 46%
    16:00 +21°C° 0 mm 4 m/s 755 mmHg 49%
    17:00 +20°C° 0 mm 3 m/s 756 mmHg 57%
    18:00 +18°C° 0 mm 3 m/s 756 mmHg 64%
    19:00 +16°C° 0 mm 2 m/s 756 mmHg 72%
    20:00 +16°C° 0 mm 2 m/s 757 mmHg 73%
    21:00 +15°C° 0 mm 2 m/s 757 mmHg 74%
    22:00 +15°C° 0 mm 2 m/s 757 mmHg 75%
    23:00 +15°C° 0 mm 2 m/s 757 mmHg 75%

    23 Septembrie, Sâmbătă

    Timp Temperatura Precipitaţii Vânt Presiune Umiditate
    00:00 +15°C° 0 mm 2 m/s 757 mmHg 74%
    01:00 +14°C° 0 mm 2 m/s 757 mmHg 74%
    02:00 +14°C° 0 mm 2 m/s 757 mmHg 74%
    03:00 +14°C° 0 mm 2 m/s 757 mmHg 74%
    04:00 +14°C° 0 mm 2 m/s 757 mmHg 74%
    05:00 +15°C° 0 mm 2 m/s 757 mmHg 72%
    06:00 +16°C° 0 mm 2 m/s 757 mmHg 69%
    07:00 +17°C° 0 mm 2 m/s 757 mmHg 66%
    08:00 +19°C° 0 mm 2 m/s 757 mmHg 60%
    09:00 +21°C° 0 mm 2 m/s 757 mmHg 54%
    10:00 +23°C° 0 mm 2 m/s 757 mmHg 48%
    11:00 +24°C° 0 mm 2 m/s 757 mmHg 46%
    12:00 +25°C° 0 mm 2 m/s 756 mmHg 44%
    13:00 +25°C° 0 mm 3 m/s 756 mmHg 41%
    14:00 +25°C° 0 mm 2 m/s 756 mmHg 43%
    15:00 +24°C° 0 mm 2 m/s 756 mmHg 45%
    16:00 +24°C° 0 mm 2 m/s 756 mmHg 47%
    17:00 +22°C° 0 mm 1 m/s 756 mmHg 55%
    18:00 +20°C° 0 mm 1 m/s 756 mmHg 63%
    19:00 +18°C° 0 mm 1 m/s 757 mmHg 71%
    20:00 +18°C° 0 mm 1 m/s 757 mmHg 71%
    21:00 +16°C° 0 mm 2 m/s 757 mmHg 71%
    22:00 +16°C° 0 mm 2 m/s 757 mmHg 70%
    23:00 +16°C° 0 mm 2 m/s 757 mmHg 68%

    24 Septembrie, Duminică

    Timp Temperatura Precipitaţii Vânt Presiune Umiditate
    00:00 +16°C° 0 mm 2 m/s 757 mmHg 65%
    01:00 +16°C° 0 mm 1 m/s 756 mmHg 62%
    02:00 +15°C° 0 mm 2 m/s 756 mmHg 60%
    03:00 +15°C° 0 mm 2 m/s 756 mmHg 57%
    04:00 +15°C° 0 mm 2 m/s 756 mmHg 54%
    05:00 +16°C° 0 mm 3 m/s 756 mmHg 52%
    06:00 +17°C° 0 mm 3 m/s 756 mmHg 50%
    07:00 +18°C° 0 mm 3 m/s 756 mmHg 48%
    08:00 +21°C° 0 mm 2 m/s 756 mmHg 43%
    09:00 +24°C° 0 mm 2 m/s 756 mmHg 39%
    10:00 +26°C° 0 mm 2 m/s 756 mmHg 34%
    11:00 +27°C° 0 mm 2 m/s 756 mmHg 33%
    12:00 +27°C° 0 mm 2 m/s 755 mmHg 32%
    13:00 +28°C° 0 mm 2 m/s 755 mmHg 31%
    14:00 +27°C° 0 mm 2 m/s 755 mmHg 35%
    15:00 +27°C° 0 mm 2 m/s 755 mmHg 38%
    16:00 +26°C° 0 mm 2 m/s 755 mmHg 42%
    17:00 +24°C° 0 mm 2 m/s 755 mmHg 48%
    18:00 +21°C° 0 mm 2 m/s 755 mmHg 54%
    19:00 +21°C° 0 mm 1 m/s 755 mmHg 60%
    20:00 +20°C° 0 mm 1 m/s 755 mmHg 59%
    21:00 +20°C° 0 mm 1 m/s 755 mmHg 58%
    22:00 +20°C° 0 mm 1 m/s 755 mmHg 57%
    23:00 +20°C° 0 mm 1 m/s 755 mmHg 55%
    Arată mai mult